[[{"header":{"parameterUnit":"m.s-1","parameterCategory":1,"la1":30.2991,"la2":30.254,"lo1":-89.0895,"lo2":-89.0444,"dy":0.0017,"dx":0.0017,"nx":28,"ny":28,"refTime":"2024-04-09T03:00:00:Z","depth":0,"parameterNumber":2,"parameterNumberName":"U-component_of_WINDS"},"data":[0,0,0,0,0,0,0,0,0,0,0,0,0,0,0,0,0,0,0,0,0,0,0,0,0,0,0,0,0,0,0,0,0,0,0,0,0,0,0,0,0,0,0,0,0,0,0,0,0,0,0,0,0,0,0,0,0,0,-5.8161,-5.8162,0,-5.8236,-5.8237,-5.8238,-5.8226,-5.8225,-5.8224,-5.8223,-5.8296,-5.8299,-5.8302,0,0,0,0,0,0,0,0,0,0,0,0,0,-5.8005,-5.8008,-5.8161,-5.8162,-5.8163,-5.8236,-5.8237,-5.8238,-5.8227,-5.8225,-5.8223,-5.8222,-5.8295,-5.8298,-5.8302,0,0,0,0,0,0,0,0,0,0,0,0,0,-5.8076,-5.8009,-5.8161,-5.8166,-5.8167,-5.8236,-5.8237,-5.8238,-5.8227,-5.8225,-5.8223,-5.8221,-5.8293,-5.8298,-5.8302,-5.8369,0,0,-5.8317,-5.8319,0,0,0,0,0,0,0,0,-5.8072,-5.8081,-5.8164,-5.8166,-5.8167,-5.822,-5.8209,-5.8282,-5.8227,-5.8204,-5.8223,-5.822,-5.8272,-5.8278,-5.8296,-5.8373,-5.8376,-5.8317,-5.832,-5.8322,-5.8323,0,0,0,0,0,0,0,-5.8067,-5.8078,-5.8191,-5.8166,-5.8167,-5.8164,-5.8172,-5.8223,-5.8247,-5.8206,-5.8205,-5.8215,-5.8272,-5.8292,-5.8298,-5.8377,-5.8317,-5.8321,-5.8324,-5.8326,-5.8512,-5.8514,0,0,0,0,0,0,-5.8061,-5.8074,-5.8188,-5.8193,-5.8114,-5.8168,-5.8177,-5.8205,-5.8247,-5.8252,-5.8216,-5.8214,-5.8285,-5.8292,-5.83,-5.838,-5.8322,-5.8326,-5.8329,-5.851,-5.8513,-5.8515,0,0,0,0,0,0,-5.8058,-5.8071,-5.8185,-5.8133,-5.8148,-5.8173,-5.8204,-5.8207,-5.8227,-5.8255,-5.8259,-5.8232,-5.8283,-5.8294,-5.8353,-5.8383,-5.8329,-5.8333,-5.8508,-5.8511,-5.8514,-5.8542,0,0,0,0,0,0,-5.8053,-5.807,-5.8096,-5.8134,-5.8151,-5.8237,-5.8206,-5.821,-5.8236,-5.8233,-5.827,-5.8275,-5.8283,-5.8346,-5.8357,-5.8388,-5.8336,-5.8505,-5.8509,-5.8513,-5.8538,-5.8545,-5.8552,0,0,0,0,0,-5.8048,-5.81,-5.8098,-5.8111,-5.8184,-5.8239,-5.8248,-5.8257,-5.8238,-5.8264,-5.8282,-5.8273,-5.8379,-5.8352,-5.8365,-5.8398,-5.8503,-5.8508,-5.8513,-5.8535,-5.8544,-5.8552,0,0,0,0,0,0,-5.8063,-5.8105,-5.8103,-5.8169,-5.8201,-5.8237,-5.8269,-5.8266,-5.8303,-5.8299,-5.8308,-5.8317,-5.8376,-5.8393,-5.8363,-5.8465,-5.8438,-5.8446,-5.8451,-5.8459,-5.8466,-5.8459,-5.834,0,0,0,0,0,-5.8075,-5.8117,-5.8151,-5.8206,-5.8223,-5.8244,-5.8268,-5.8273,-5.8305,-5.8318,-5.834,-5.8371,-5.8411,-5.8436,-5.8475,-5.8542,-5.8549,-5.8571,-5.8578,-5.8583,-5.8589,-5.8625,-5.8635,-5.8531,-5.8531,-5.8531,0,0,-5.8098,-5.8126,-5.8152,-5.821,-5.8235,-5.8277,-5.8255,-5.83,-5.8331,-5.8324,-5.8381,-5.8399,-5.8434,-5.8497,-5.8526,-5.8513,-5.862,-5.859,-5.8594,-5.8596,-5.8631,-5.864,-5.8649,-5.8534,-5.8534,-5.8533,0,0,-5.8162,-5.8188,-5.8237,-5.8263,-5.8302,-5.8316,-5.8328,-5.8365,-5.8377,-5.8435,-5.843,-5.8468,-5.8536,-5.8561,-5.8583,-5.8659,-5.8652,-5.8672,-5.8706,-5.8741,-5.8749,-5.8756,-5.8781,-5.8791,-5.8678,-5.8678,-5.8678,0,-5.8185,-5.825,-5.8262,-5.8309,-5.8334,-5.8332,-5.8381,-5.8405,-5.8454,-5.8471,-5.8457,-5.8544,-5.8568,-5.8636,-5.8655,-5.8673,-5.8686,-5.8665,-5.8747,-5.8754,-5.8761,-5.8785,-5.8795,-5.868,-5.8679,-5.8679,-5.8679,0,-5.8276,-5.8321,-5.8356,-5.8404,-5.8434,-5.8481,-5.85,-5.8529,-5.8532,-5.8547,-5.8606,-5.8635,-5.8679,-5.8697,-5.87,-5.8766,-5.8757,-5.8745,-5.8718,-5.8773,-5.8796,-5.8805,-5.8682,-5.8682,-5.8681,-5.8681,0,0,-5.8348,-5.8405,-5.8417,-5.8439,-5.8483,-5.8517,-5.8565,-5.861,-5.8633,-5.8668,-5.8707,-5.8767,-5.8757,-5.8781,-5.8788,-5.8819,-5.8876,-5.8804,-5.8804,-5.8814,-5.8949,-5.8955,-5.8966,-5.8873,-5.8875,-5.8877,-5.8945,0,-5.8414,-5.8498,-5.8512,-5.8586,-5.8627,-5.8627,-5.8669,-5.87,-5.8716,-5.8753,-5.8771,-5.8812,-5.8797,-5.8812,-5.8843,-5.8862,-5.8902,-5.8858,-5.8907,-5.8909,-5.8895,-5.8978,-5.8985,-5.9048,-5.8954,-5.8956,-5.8957,0,-5.8501,-5.8539,-5.8618,-5.8657,-5.8674,-5.8711,-5.8753,-5.879,-5.8825,-5.8835,-5.8864,-5.8867,-5.8916,-5.8889,-5.8956,-5.8925,-5.8947,-5.896,-5.8963,-5.8965,-5.8934,-5.898,-5.9068,-5.9077,-5.8972,-5.897,-5.8969,0,-5.8543,-5.8614,-5.867,-5.869,-5.8737,-5.8763,-5.8784,-5.8817,-5.8844,-5.8881,-5.8898,-5.894,-5.8962,-5.8995,-5.9009,-5.8989,-5.9074,-5.9049,-5.9082,-5.9082,-5.9097,-5.9095,-5.9187,-5.9116,-5.9116,-5.9116,-5.9116,0,-5.8613,-5.8661,-5.869,-5.8724,-5.8777,-5.8793,-5.8845,-5.8865,-5.8895,-5.8933,-5.8936,-5.8971,-5.8989,-5.9027,-5.9039,-5.9091,-5.9102,-5.911,-5.9112,-5.9108,-5.9107,-5.912,-5.9115,-5.9118,-5.9118,-5.9117,-5.9117,0,-5.8667,-5.8689,-5.875,-5.8791,-5.8802,-5.8839,-5.8874,-5.8907,-5.8924,-5.8972,-5.8984,-5.9011,-5.9055,-5.9074,-5.9128,-5.9136,-5.9196,-5.9196,-5.9184,-5.9184,-5.9215,-5.9211,-5.9316,-5.933,-5.9252,-5.9253,-5.9254,0,-5.8709,-5.8746,-5.8791,-5.8817,-5.8839,-5.8881,-5.8908,-5.8926,-5.8954,-5.8998,-5.9025,-5.9071,-5.9107,-5.9178,-5.9202,-5.9244,-5.9243,-5.9278,-5.9249,-5.9244,-5.9241,-5.9237,-5.924,-5.9281,-5.9282,-5.9283,-5.9283,0,-5.8781,-5.879,-5.883,-5.8874,-5.8907,-5.8942,-5.8976,-5.8997,-5.902,-5.9051,-5.9097,-5.9126,-5.9183,-5.9227,-5.9271,-5.9291,-5.929,-5.9293,-5.9302,-5.9297,-5.9287,-5.9291,-5.9195,-5.9289,-5.9289,-5.9288,-5.9288,-5.9288,-5.8829,-5.8861,-5.8898,-5.8942,-5.897,-5.9003,-5.9036,-5.9058,-5.9097,-5.9145,-5.9154,-5.9203,-5.9238,-5.9297,-5.932,-5.9358,-5.9349,-5.9363,-5.9366,-5.9368,-5.9369,-5.9284,-5.9366,-5.9366,-5.9366,-5.9366,-5.9366,0,-5.8898,-5.8923,-5.8964,-5.9012,-5.9047,-5.9046,-5.9084,-5.9113,-5.9156,-5.919,-5.9227,-5.928,-5.9323,-5.9352,-5.9396,-5.9421,-5.9422,-5.9431,-5.9428,-5.9433,-5.9376,-5.9362,-5.943,-5.943,-5.943,-5.943,-5.943,-5.943,-5.8938,-5.8993,-5.9007,-5.9076,-5.91,-5.9148,-5.917,-5.92,-5.9227,-5.9286,-5.9323,-5.9342,-5.9374,-5.942,-5.946,-5.9467,-5.9482,-5.9492,-5.9498,-5.9443,-5.9437,-5.943,-5.9417,-5.9495,-5.9495,-5.9551,-5.9552,-5.9552]},{"header":{"parameterUnit":"m.s-1","parameterCategory":1,"la1":30.2991,"la2":30.254,"lo1":-89.0895,"lo2":-89.0444,"dy":0.0017,"dx":0.0017,"nx":28,"ny":28,"refTime":"2024-04-09T03:00:00:Z","depth":0,"parameterNumber":3,"parameterNumberName":"V-component_of_WINDS"},"data":[0,0,0,0,0,0,0,0,0,0,0,0,0,0,0,0,0,0,0,0,0,0,0,0,0,0,0,0,0,0,0,0,0,0,0,0,0,0,0,0,0,0,0,0,0,0,0,0,0,0,0,0,0,0,0,0,0,0,5.0989,5.099,0,5.1089,5.109,5.1091,5.1096,5.1095,5.1094,5.1093,5.1189,5.1192,5.1196,0,0,0,0,0,0,0,0,0,0,0,0,0,5.0797,5.08,5.0989,5.099,5.0991,5.1089,5.109,5.1092,5.1096,5.1095,5.1093,5.1092,5.1188,5.1192,5.1196,0,0,0,0,0,0,0,0,0,0,0,0,0,5.0887,5.0801,5.0988,5.1005,5.1008,5.1089,5.109,5.1092,5.1097,5.1095,5.1093,5.1091,5.1186,5.1192,5.1197,5.1266,0,0,5.1214,5.1216,0,0,0,0,0,0,0,0,5.0882,5.0894,5.1002,5.1004,5.1007,5.1078,5.1058,5.115,5.1097,5.1063,5.1093,5.1091,5.1153,5.1161,5.1184,5.127,5.1274,5.1214,5.1218,5.122,5.1221,0,0,0,0,0,0,0,5.0875,5.0889,5.1028,5.1003,5.1007,5.1007,5.1017,5.1075,5.1116,5.1066,5.1066,5.1078,5.1154,5.1178,5.1186,5.1276,5.1214,5.1219,5.1222,5.1224,5.1426,5.1428,0,0,0,0,0,0,5.0866,5.0884,5.1025,5.1031,5.0939,5.1012,5.1024,5.1057,5.1116,5.1123,5.108,5.1078,5.117,5.118,5.1189,5.1276,5.122,5.1225,5.1228,5.1424,5.1426,5.1428,0,0,0,0,0,0,5.0862,5.0879,5.1021,5.0958,5.0976,5.1017,5.1054,5.106,5.1084,5.1127,5.1133,5.1097,5.1169,5.1182,5.1248,5.1279,5.1227,5.1232,5.1421,5.1424,5.1427,5.1447,0,0,0,0,0,0,5.0857,5.0878,5.0905,5.0959,5.098,5.1079,5.1056,5.1063,5.1095,5.1093,5.1145,5.1151,5.1169,5.124,5.1253,5.1285,5.1237,5.1419,5.1423,5.1426,5.1444,5.145,5.1456,0,0,0,0,0,5.085,5.0904,5.0906,5.0923,5.1015,5.1081,5.1092,5.1113,5.1097,5.1124,5.1152,5.115,5.1273,5.1246,5.1261,5.1296,5.1417,5.1422,5.1426,5.1441,5.1449,5.1456,0,0,0,0,0,0,5.085,5.0912,5.0914,5.0988,5.103,5.1081,5.1117,5.112,5.1165,5.1162,5.1184,5.1195,5.1261,5.1285,5.1254,5.1367,5.1343,5.1351,5.1349,5.1357,5.1363,5.1356,5.1241,0,0,0,0,0,5.0859,5.0909,5.096,5.102,5.1041,5.1075,5.1105,5.1117,5.116,5.1177,5.1209,5.1249,5.1297,5.1328,5.1374,5.1447,5.1459,5.1478,5.1484,5.1489,5.1496,5.1538,5.1548,5.1444,5.1444,5.1444,0,0,5.0877,5.0917,5.0947,5.1021,5.1054,5.1105,5.109,5.1143,5.1181,5.1184,5.125,5.1275,5.1321,5.1391,5.1424,5.1413,5.1528,5.1495,5.1499,5.1503,5.1544,5.1554,5.1562,5.1447,5.1446,5.1446,0,0,5.0937,5.0972,5.1028,5.1062,5.1115,5.1138,5.1151,5.1203,5.1221,5.1288,5.1292,5.1336,5.1418,5.1452,5.1479,5.1555,5.1555,5.1569,5.1601,5.1642,5.165,5.1658,5.1686,5.1696,5.1576,5.1576,5.1576,0,5.0953,5.1031,5.1055,5.111,5.1142,5.1151,5.1207,5.1239,5.1302,5.1324,5.1312,5.1417,5.1448,5.1528,5.1547,5.1568,5.1584,5.1564,5.1648,5.1655,5.1663,5.169,5.17,5.1577,5.1577,5.1577,5.1577,0,5.1049,5.1103,5.1141,5.1206,5.1243,5.1298,5.1329,5.1363,5.1373,5.1397,5.1465,5.1504,5.1559,5.1579,5.1587,5.166,5.1652,5.1643,5.162,5.1674,5.17,5.171,5.1579,5.1579,5.1578,5.1578,0,0,5.111,5.119,5.1204,5.1234,5.1294,5.1336,5.1391,5.1448,5.1478,5.1521,5.1569,5.1639,5.1633,5.1664,5.1677,5.1712,5.1772,5.17,5.1701,5.1713,5.1856,5.1864,5.1875,5.1773,5.1775,5.1776,5.1853,0,5.1178,5.128,5.1303,5.139,5.1441,5.1451,5.15,5.1541,5.1565,5.1611,5.1637,5.1687,5.1674,5.1693,5.1729,5.1757,5.1801,5.1752,5.1816,5.1819,5.1806,5.1889,5.1896,5.1966,5.1863,5.1865,5.1866,0,5.127,5.132,5.1413,5.1468,5.149,5.1534,5.1589,5.1633,5.168,5.1695,5.1732,5.1742,5.18,5.1774,5.1854,5.182,5.1847,5.1865,5.1868,5.1876,5.1846,5.1899,5.1989,5.2,5.1882,5.1881,5.188,0,5.1308,5.1397,5.1466,5.1491,5.1557,5.1588,5.1616,5.1662,5.1695,5.1743,5.1765,5.1818,5.1847,5.1887,5.191,5.1889,5.1989,5.1964,5.2003,5.2003,5.2024,5.2023,5.2121,5.204,5.204,5.204,5.2039,0,5.1381,5.1438,5.1484,5.1526,5.159,5.1616,5.1678,5.1706,5.1748,5.1794,5.1805,5.1848,5.1876,5.1923,5.1942,5.2006,5.2018,5.2032,5.2037,5.2032,5.2031,5.2051,5.2047,5.2042,5.2042,5.2041,5.2041,0,5.1434,5.1467,5.1543,5.16,5.1616,5.1661,5.1709,5.175,5.1775,5.1835,5.185,5.1889,5.1945,5.1973,5.2042,5.2054,5.2128,5.2128,5.2113,5.2115,5.2153,5.2149,5.2268,5.2286,5.2192,5.2193,5.2194,0,5.148,5.1525,5.1588,5.1622,5.1652,5.1705,5.1741,5.1768,5.1804,5.1863,5.1897,5.1954,5.2002,5.2091,5.2125,5.2178,5.218,5.2219,5.2188,5.2183,5.2183,5.2181,5.2186,5.2224,5.2225,5.2226,5.2226,0,5.1558,5.1573,5.1625,5.1683,5.1726,5.1773,5.1818,5.1845,5.188,5.192,5.1979,5.2016,5.2089,5.2146,5.2202,5.223,5.2234,5.2236,5.2248,5.2244,5.2234,5.2242,5.2129,5.2233,5.2232,5.2232,5.2231,5.2231,5.161,5.1651,5.1703,5.1761,5.1799,5.1842,5.1885,5.1917,5.1967,5.2031,5.2043,5.2106,5.2153,5.223,5.226,5.2309,5.23,5.2317,5.2322,5.2326,5.2329,5.2226,5.2319,5.2319,5.2318,5.2318,5.2318,0,5.169,5.1725,5.1778,5.1844,5.1889,5.1892,5.1943,5.1981,5.2038,5.2082,5.213,5.2199,5.2255,5.2294,5.2351,5.2383,5.2386,5.2397,5.2395,5.2402,5.2332,5.2317,5.2393,5.2393,5.2393,5.2393,5.2393,5.2393,5.1737,5.1808,5.1829,5.1919,5.1952,5.2017,5.2046,5.2086,5.2122,5.22,5.2248,5.2274,5.2317,5.2377,5.2428,5.2438,5.2459,5.247,5.248,5.2414,5.2406,5.2399,5.2385,5.2474,5.2474,5.2546,5.2547,5.2547]}]]